Meridian, MS

11:05 PM CST on February 19, 2017 (GMT -0600)
Meridian Naval Air Station

Weather History for KNMM - June, 2013

Change the Weather History Date:

Thursday, June 6, 2013

  Actual Average Record
Temperature  
Mean Temperature 75 °F -  
Max Temperature 87 °F 84 °F 99 °F (2011)
Min Temperature 66 °F 65 °F 55 °F (1998)
Cooling Degree Days 10    
Growing Degree Days 25 (Base 50)    
Moisture  
Dew Point 69 °F    
Average Humidity 80    
Maximum Humidity 94    
Minimum Humidity 62    
Precipitation  
Precipitation 0.74 in - - ()
Sea Level Pressure  
Sea Level Pressure 29.82 in    
Wind  
Wind Speed 3 mph (WNW)    
Max Wind Speed 21 mph    
Max Gust Speed 28 mph    
Visibility 9 miles    
Events Rain , Thunderstorm    
Averages and records for this station are not official NWS values.
T = Trace of Precipitation, MM = Missing Value Source: NWS Daily Summary

Daily Weather History Graph

Daily Weather History Graph

Search for Another Location

Airport or City:

Trip Planner

Search our weather history database for the weather conditions in past years. The results will help you decide how hot, cold, wet, or windy it might be!

Date:

Astronomy

Jun. 06, 2013 Rise Set
Actual Time 5:46 AM CDT 7:59 PM CDT
Civil Twilight 5:18 AM CDT 8:27 PM CDT
Nautical Twilight 4:43 AM CDT 9:02 PM CDT
Astronomical Twilight 4:06 AM CDT 9:39 PM CDT
Moon 4:22 AM CDT (6/6) 6:25 PM CDT (6/6)
Length of Visible Light 15h 09m
Length of Day
14h 13m
Waning Crescent, 3% of the Moon is Illuminated
Jun 6
Waning Crescent
Jun 8
New
Jun 16
First Quarter
Jun 23
Full
Jun 29
Last Quarter

Hourly Weather History & Observations

Time (CDT) Temp. Heat Index Dew Point Humidity Pressure Visibility Wind Dir Wind Speed Gust Speed Precip Events Conditions
12:56 AM 69.1 °F - 66.9 °F 93% 29.91 in 10.0 mi Calm Calm - N/A   Clear
1:56 AM 68.0 °F - 66.0 °F 93% 29.87 in 10.0 mi Calm Calm - N/A   Clear
2:56 AM 68.0 °F - 66.0 °F 93% 29.86 in 10.0 mi SW 3.5 mph - 0.01 in   Clear
3:56 AM 66.9 °F - 64.9 °F 93% 29.84 in 10.0 mi Calm Calm - N/A   Clear
4:56 AM 66.0 °F - 64.0 °F 93% 29.86 in 9.0 mi Calm Calm - N/A   Clear
5:56 AM 66.0 °F - 64.0 °F 93% 29.87 in 10.0 mi Calm Calm - N/A   Mostly Cloudy
6:30 AM 66.2 °F - 64.4 °F 94% 29.86 in 10.0 mi Calm Calm - N/A   Overcast
6:56 AM 68.0 °F - 66.0 °F 93% 29.88 in 10.0 mi Calm Calm - N/A   Mostly Cloudy
7:56 AM 69.1 °F - 66.0 °F 90% 29.90 in 10.0 mi NE 3.5 mph - 0.01 in   Overcast
8:56 AM 73.0 °F - 66.9 °F 81% 29.90 in 10.0 mi Calm Calm - N/A   Scattered Clouds
9:56 AM 77.0 °F - 68.0 °F 74% 29.88 in 10.0 mi Calm Calm - N/A   Scattered Clouds
10:56 AM 82.0 °F 85.9 °F 70.0 °F 67% 29.86 in 10.0 mi West 4.6 mph - N/A   Scattered Clouds
11:31 AM 82.4 °F 86.3 °F 69.8 °F 66% 29.83 in 10.0 mi Calm Calm - N/A   Scattered Clouds
11:42 AM 80.6 °F 84.6 °F 71.6 °F 74% 29.83 in 10.0 mi WSW 6.9 mph - N/A   Mostly Cloudy
11:56 AM 82.9 °F 87.5 °F 71.1 °F 67% 29.85 in 10.0 mi WSW 3.5 mph - N/A   Overcast
12:09 PM 82.4 °F 87.2 °F 71.6 °F 70% 29.83 in 10.0 mi Variable 4.6 mph - N/A   Overcast
12:56 PM 84.0 °F 89.0 °F 71.1 °F 65% 29.85 in 10.0 mi Variable 3.5 mph - N/A   Mostly Cloudy
1:18 PM 84.2 °F 89.6 °F 71.6 °F 66% 29.82 in 10.0 mi WNW 3.5 mph - N/A   Mostly Cloudy
1:25 PM 84.2 °F 88.4 °F 69.8 °F 62% 29.81 in 10.0 mi Calm Calm - N/A   Mostly Cloudy
1:56 PM 84.9 °F 90.1 °F 71.1 °F 63% 29.81 in 10.0 mi Variable 4.6 mph - N/A   Mostly Cloudy
2:20 PM 84.2 °F 89.6 °F 71.6 °F 66% 29.78 in 10.0 mi ENE 5.8 mph - 0.00 in Rain Light Rain
2:28 PM 84.2 °F 88.4 °F 69.8 °F 62% 29.78 in 10.0 mi ENE 4.6 mph - 0.00 in Rain Light Rain
2:31 PM 84.2 °F 89.6 °F 71.6 °F 66% 29.78 in 0.5 mi NE 13.8 mph 24.2 mph 0.00 in Rain , Thunderstorm Light Thunderstorms and Rain
2:51 PM 75.2 °F - 69.8 °F 83% 29.77 in 5.0 mi WNW 3.5 mph - 0.37 in Rain , Thunderstorm Light Thunderstorms and Rain
2:56 PM 75.9 °F - 69.1 °F 79% 29.79 in 7.0 mi East 6.9 mph - 0.38 in Rain Rain
3:18 PM 82.4 °F 87.2 °F 71.6 °F 70% 29.76 in 10.0 mi SE 4.6 mph - 0.00 in Thunderstorm Thunderstorm
3:36 PM 84.2 °F 90.9 °F 73.4 °F 70% 29.76 in 10.0 mi ESE 4.6 mph - 0.00 in   Scattered Clouds
3:56 PM 82.0 °F 88.6 °F 75.0 °F 79% 29.76 in 10.0 mi South 5.8 mph - 0.00 in   Mostly Cloudy
4:16 PM 82.4 °F 88.2 °F 73.4 °F 74% 29.76 in 10.0 mi Calm Calm - N/A Thunderstorm Thunderstorm
4:56 PM 77.0 °F - 70.0 °F 79% 29.80 in 10.0 mi SW 15.0 mph 20.7 mph 0.00 in Rain , Thunderstorm Light Thunderstorms and Rain
5:16 PM 71.6 °F - 66.2 °F 83% 29.80 in 6.0 mi NW 20.7 mph 26.5 mph 0.01 in Rain , Thunderstorm Light Thunderstorms and Rain
5:56 PM 71.1 °F - 68.0 °F 90% 29.84 in 3.0 mi West 19.6 mph 27.6 mph 0.11 in Rain , Thunderstorm Heavy Thunderstorms and Rain
6:56 PM 70.0 °F - 66.9 °F 90% 29.85 in 4.0 mi West 11.5 mph - 0.11 in Rain , Thunderstorm Thunderstorms and Rain
7:04 PM 69.8 °F - 66.2 °F 88% 29.82 in 5.0 mi West 10.4 mph - 0.04 in Rain Rain
7:56 PM 70.0 °F - 66.9 °F 90% 29.79 in 10.0 mi North 5.8 mph - 0.12 in Rain Light Rain
8:39 PM 69.8 °F - 66.2 °F 88% 29.77 in 10.0 mi NW 4.6 mph - 0.00 in   Overcast
8:56 PM 69.1 °F - 66.9 °F 93% 29.79 in 10.0 mi West 3.5 mph - 0.00 in   Overcast
9:56 PM 69.1 °F - 66.9 °F 93% 29.82 in 10.0 mi Calm Calm - N/A   Overcast
10:56 PM 69.1 °F - 66.9 °F 93% 29.82 in 10.0 mi NW 4.6 mph - N/A   Mostly Cloudy
11:56 PM 68.0 °F - 66.0 °F 93% 29.82 in 10.0 mi West 4.6 mph - N/A   Mostly Cloudy